Flag for U.S.A. Weather past 2 weeks in Barnstable, Massachusetts, U.S.A.

Now
68 °F

Sunny.


Feels Like: 68 °F
Forecast: 61 / 74 °F
Wind: 10 mph from Northeast

Location: Barnstable Municipal-Boardman Airport

Current Time: Sep 5, 2015 at 9:26:03 AM

Latest Report: Sep 5, 2015 at 8:56 AM


Visibility: 10 mi

Pressure: 30.28 "Hg

Humidity: 65%

Dew point: 56 °F

Location of BarnstableLocation

Historic Weather in Barnstable — Graph

°F

Barnstable temperature yesterday

Maximum temperature yesterday: 77 °F (at 11:56 AM)
Minimum temperature yesterday: 57 °F (at 11:56 PM)
Average temperature yesterday: 70 °F

Past Weeks' High & Low Weather Summary

 TemperatureHumidityPressure
High87 °F (Aug 31, 12:56 PM)100% (Aug 23, 1:56 AM)30.28 "Hg (Aug 23, 1:56 AM)
Low52 °F (Sep 5, 2:56 AM)42% (Aug 29, 11:56 AM)29.82 "Hg (Sep 3, 3:56 PM)
Average73 °F79%30.00 "Hg
* Reported Aug 21 7:56 AM — Sep 5 7:56 AM, Barnstable, Weather by CustomWeather, © 2015

Note: Actual official high and low records may vary slightly from our data, if they occured in-between our weather recording intervals... More about our weather records

Advertising

Barnstable weather history for previous 24 hours

 ConditionsComfort  
Time TempWeatherWind HumidityBarometerVisibility
7:56 AM
Sat, Sep 5
65 °FSunny.5 mph78%30.28 "Hg10 mi
6:56 AM54 °FClear.No wind93%30.27 "Hg10 mi
5:56 AM53 °FClear.No wind93%30.25 "Hg10 mi
4:56 AM53 °FClear.No wind89%30.23 "Hg10 mi
3:56 AM53 °FClear.No wind89%30.21 "Hg10 mi
2:56 AM52 °FClear.3 mph93%30.21 "Hg10 mi
1:56 AM55 °FClear.No wind93%30.22 "Hg10 mi
12:56 AM55 °FClear.No wind93%30.23 "Hg8 mi
11:56 PM
Fri, Sep 4
57 °FClear.No wind93%30.23 "Hg10 mi
10:56 PM60 °FClear.3 mph90%30.23 "Hg10 mi
9:56 PM61 °FClear.3 mph87%30.23 "Hg10 mi
8:56 PM63 °FClear.3 mph84%30.22 "Hg10 mi
7:56 PM64 °FPassing clouds.5 mph81%30.19 "Hg10 mi
6:56 PM67 °FScattered clouds.8 mph76%30.18 "Hg10 mi
5:56 PM69 °FPartly sunny.9 mph73%30.17 "Hg10 mi
4:56 PM71 °FOvercast.10 mph71%30.15 "Hg10 mi
3:56 PM72 °FOvercast.15 mph68%30.15 "Hg10 mi
2:56 PM73 °FOvercast.14 mph69%30.15 "Hg10 mi
1:56 PM73 °FOvercast.15 mph69%30.14 "Hg10 mi
12:56 PM76 °FBroken clouds.16 mph64%30.13 "Hg10 mi
11:56 AM77 °FPassing clouds.15 mph64%30.12 "Hg10 mi
10:56 AM75 °FScattered clouds.14 mph71%30.10 "Hg10 mi
9:56 AM75 °FPassing clouds.14 mph71%30.09 "Hg10 mi
Weather by CustomWeather, © 2015

See weather overviewHow to use our weather pages